EDT,Max TemperatureF,Mean TemperatureF,Min TemperatureF,Max Dew PointF,MeanDew PointF,Min DewpointF,Max Humidity, Mean Humidity, Min Humidity, Max Sea Level PressureIn, Mean Sea Level PressureIn, Min Sea Level PressureIn, Max VisibilityMiles, Mean VisibilityMiles, Min VisibilityMiles, Max Wind SpeedMPH, Mean Wind SpeedMPH, Max Gust SpeedMPH,PrecipitationIn, CloudCover, Events, WindDirDegrees
2007-3-1,55,47,39,53,42,28,100,75,49,30.04,29.78,29.42,10,5,2,12,5,15,2.38,7,Rain-Thunderstorm,164
2007-3-2,57,48,38,54,26,-1,93,52,10,29.79,29.62,29.41,10,10,10,23,10,33,0.02,1,Rain,316
2007-3-3,58,45,31,25,14,2,78,45,12,29.88,29.78,29.71,10,10,10,24,10,33,0.00,0,,299
2007-3-4,38,32,25,22,17,12,81,58,35,30.19,30.06,29.88,10,9,2,21,14,26,T,4,Rain-Snow,347
2007-3-5,57,43,28,22,14,9,58,37,16,30.28,30.20,30.15,10,10,10,22,13,30,0.00,0,,337
2007-3-6,58,47,36,26,21,15,59,39,19,30.35,30.27,30.15,10,10,10,31,11,37,0.00,0,,344
2007-3-7,68,50,31,28,24,20,78,48,18,30.28,30.14,30.02,10,10,10,21,6,29,0.00,0,,292
2007-3-8,65,48,30,33,30,26,85,55,25,30.21,30.14,30.09,10,10,9,15,3,21,0.00,0,,179
2007-3-9,57,46,34,34,32,29,89,62,35,30.36,30.29,30.22,10,9,6,15,6,21,0.00,2,,155
2007-3-10,64,51,37,41,37,32,85,61,37,30.30,30.23,30.15,10,10,7,18,4,22,T,5,,186
2007-3-11,66,55,43,46,34,22,86,53,20,30.30,30.25,30.19,10,9,6,16,7,23,T,3,,347
2007-3-12,68,51,34,33,27,19,82,51,20,30.35,30.27,30.18,10,10,10,10,2,12,0.00,1,,152
2007-3-13,75,55,34,43,36,28,82,55,27,30.32,30.21,30.14,10,10,10,9,2,12,0.00,1,,219
2007-3-14,75,62,48,48,44,39,86,58,29,30.19,30.10,30.01,10,9,5,21,4,29,0.01,4,,194
2007-3-15,72,58,44,55,49,42,93,69,44,30.03,29.97,29.91,10,8,2,20,6,26,0.17,4,Rain,209
2007-3-16,57,45,32,55,47,19,100,78,56,29.97,29.84,29.73,10,6,1,29,11,35,1.49,7,Rain,348
2007-3-17,41,35,29,20,14,10,63,47,30,30.12,30.01,29.91,10,10,10,32,16,39,0.00,1,,339
2007-3-18,47,36,25,16,11,4,63,40,17,30.34,30.21,30.12,10,10,10,18,7,25,0.00,0,,344
2007-3-19,63,43,23,43,25,15,81,54,27,30.40,30.34,30.27,10,10,10,20,7,23,0.01,2,Rain,170
2007-3-20,71,57,42,55,46,39,93,67,41,30.40,30.34,30.29,10,9,3,16,6,20,0.07,4,Rain,342
2007-3-21,62,56,49,52,49,46,96,78,60,30.53,30.46,30.39,10,3,0,14,4,17,0.00,8,Fog,157
2007-3-22,71,61,50,48,46,44,83,64,44,30.46,30.35,30.24,10,9,7,20,8,23,0.00,4,,178
2007-3-23,77,59,40,49,45,39,96,66,36,30.33,30.25,30.16,10,9,2,13,2,16,0.00,0,Fog,175
2007-3-24,78,62,45,50,46,43,93,63,32,30.34,30.28,30.23,10,9,5,14,3,17,0.00,0,,351
2007-3-25,81,64,46,51,47,44,93,63,32,30.38,30.29,30.23,10,10,9,14,3,16,0.00,1,,154
2007-3-26,74,65,55,53,50,44,80,61,41,30.36,30.28,30.20,10,10,6,13,8,17,0.00,0,,150
2007-3-27,78,65,51,55,52,49,96,68,39,30.27,30.20,30.13,10,7,2,13,3,18,0.00,0,,190
2007-3-28,79,65,50,57,52,46,96,64,32,30.17,30.14,30.06,10,8,4,20,4,24,T,3,Rain-Thunderstorm,335
2007-3-29,62,54,46,56,49,42,86,82,78,30.42,30.31,30.16,10,9,3,12,5,15,0.14,8,Rain,131
2007-3-30,66,56,46,51,45,37,93,71,48,30.43,30.35,30.19,10,7,2,12,6,15,0.00,6,,176
2007-3-31,75,61,47,53,50,45,93,70,46,30.21,30.12,30.04,10,10,8,20,5,25,0.00,2,,180